Wind_Speed
39 40 38 37 38 38 39 40 39 39 40 41 38 35 34 35 32 30 29 29 28 27 27 26 25 24 24 24 24 24 24 25 25 26 26 27 28 28 29 30 31 31 32 32
38 38 37 39 40 40 39 39 39 39 41 42 39 36 34 35 34 31 30 29 28 27 27 26 25 25 25 25 24 24 25 25 26 26 27 28 28 29 30 31 32 32 33 33
36 33 36 38 39 40 39 39 38 39 40 42 40 36 34 35 34 32 29 29 28 28 27 26 25 25 25 24 24 25 25 26 26 27 28 29 29 30 31 32 33 33 34 34
36 34 36 37 38 38 38 38 39 39 41 41 41 39 32 33 32 31 30 29 28 28 28 26 25 25 25 25 25 25 26 26 27 27 29 29 30 31 33 34 34 35 35 36
34 33 35 36 36 38 39 38 39 40 41 41 38 40 32 31 31 30 30 28 28 27 27 26 25 25 25 25 26 26 27 27 28 29 30 31 32 33 34 35 36 37 37 38
34 34 35 35 35 37 38 38 40 41 41 40 34 38 34 28 29 30 30 29 28 27 26 26 25 26 26 26 27 27 28 29 30 30 31 32 33 35 36 37 38 39 40 40
33 33 34 34 35 36 37 37 39 40 40 39 35 38 34 28 27 29 29 28 28 27 27 26 26 26 27 27 28 29 29 30 31 32 33 34 35 37 38 39 40 40 41 42
33 32 32 32 32 34 35 37 39 40 40 38 36 36 32 28 27 28 28 27 27 27 27 26 26 27 27 28 29 30 30 31 32 34 35 36 38 39 40 41 42 42 43 44
32 32 31 32 31 33 35 36 36 38 38 38 37 35 31 27 26 27 27 27 26 26 26 26 26 27 28 29 30 30 31 33 34 36 37 38 40 41 42 43 44 45 45 45
31 32 31 31 33 34 34 34 36 37 38 37 36 33 30 26 26 25 25 25 26 26 26 26 27 28 29 30 31 32 33 35 37 38 40 41 42 43 44 45 46 46 47 47
31 32 31 32 32 32 34 34 35 37 38 37 35 31 27 26 25 24 25 25 25 26 26 27 28 29 30 31 33 34 36 37 39 40 42 43 44 45 46 47 47 47 48 49
29 31 32 31 31 33 35 35 34 36 36 36 35 31 27 27 26 26 26 26 26 26 27 28 29 30 32 33 35 36 38 39 41 42 44 45 46 47 47 48 48 49 49 50
29 30 30 31 32 32 33 32 33 34 36 36 35 31 27 28 28 28 28 28 28 28 28 29 30 32 33 35 36 38 39 41 43 44 46 47 47 48 49 49 50 50 50 51
29 29 28 27 26 28 29 30 31 34 35 34 32 29 27 28 29 30 30 30 31 31 31 32 32 33 35 37 38 40 42 43 45 46 47 48 49 49 50 50 50 51 52 52
28 27 26 26 26 28 28 29 30 32 32 32 29 29 26 28 31 32 32 32 33 33 33 34 34 35 37 39 40 42 44 45 46 47 48 49 49 50 50 51 51 52 53 54
28 27 27 28 28 29 30 29 30 31 31 31 30 28 26 30 32 33 33 33 33 34 35 36 37 38 39 40 42 44 45 46 47 48 49 49 50 51 51 52 53 54 55 56
29 28 28 28 28 31 32 28 29 30 30 31 31 27 28 31 32 33 33 34 35 36 37 37 38 40 41 43 44 45 46 47 48 48 49 50 51 51 52 53 54 55 56 57
30 29 28 28 29 33 27 26 28 29 30 31 32 30 31 32 34 34 35 36 37 37 38 39 41 42 43 44 45 46 46 47 48 49 50 50 51 52 53 54 55 56 57 58
31 30 30 30 31 31 28 27 27 30 30 30 32 32 33 34 35 35 36 36 37 38 39 41 42 43 44 45 45 46 47 47 48 49 50 51 52 53 54 55 56 57 58 59
32 32 33 32 32 32 26 26 28 31 31 27 30 32 33 34 34 34 35 36 38 39 40 41 42 43 44 45 45 46 47 47 48 49 50 51 52 53 55 56 57 58 60 61
32 32 33 32 33 32 28 27 28 31 28 28 30 32 33 33 34 34 35 37 38 39 41 42 43 44 44 45 45 46 47 48 48 49 50 51 53 54 56 57 58 60 62 63
32 33 33 33 34 30 27 30 30 29 30 30 31 31 32 33 34 35 37 38 39 40 41 42 43 44 44 45 45 46 47 48 49 50 51 52 54 56 57 58 60 62 64 66
32 32 32 33 32 30 31 31 31 31 31 31 31 32 33 33 34 35 36 37 38 39 41 42 43 43 44 45 45 46 48 49 50 51 52 54 55 57 58 60 62 64 67 70
32 32 33 34 33 32 32 32 32 32 32 33 33 33 33 33 34 35 36 37 39 40 41 41 42 43 43 45 46 47 49 50 51 52 53 55 56 58 60 62 65 68 71 74
33 33 34 34 33 33 33 33 33 34 34 33 33 33 33 34 35 37 37 38 39 40 41 42 42 43 44 45 47 49 50 51 52 53 55 56 58 60 62 65 68 72 75 80
34 33 33 33 32 34 34 34 34 34 34 34 34 35 35 36 37 38 38 39 40 41 41 42 43 44 45 47 48 50 51 52 53 54 56 58 60 63 66 69 72 76 80 83
Wind_Direction
244 244 245 245 246 247 247 248 249 250 252 254 255 255 257 260 261 261 262 264 265 266 267 268 268 269 269 270 271 273 275 277 278 278 279 281 283 284 285 286 286 286 287 287
244 245 244 244 246 248 249 250 251 252 254 255 255 254 254 257 260 261 261 262 262 263 263 265 265 266 267 268 269 271 273 275 276 277 279 281 283 285 285 286 286 287 287 288
245 244 242 244 246 249 250 250 251 252 253 257 257 254 254 256 257 259 260 260 260 260 261 262 263 264 265 266 268 270 273 274 275 276 278 281 284 285 286 286 287 287 288 288
244 243 243 245 246 248 249 250 251 252 254 256 259 258 252 255 257 258 259 258 257 258 259 259 261 262 263 265 267 269 272 274 275 277 279 282 284 286 287 287 287 288 288 288
245 245 246 247 247 248 249 249 251 252 254 256 257 261 254 253 255 256 257 257 257 258 258 258 259 260 261 264 266 269 272 274 276 278 280 283 285 287 288 288 288 288 289 289
243 243 245 246 246 247 249 249 250 252 255 256 256 260 259 254 253 254 255 256 257 257 256 257 259 259 261 264 266 269 272 274 277 279 282 285 287 288 289 289 288 288 289 289
243 244 245 245 245 246 247 249 251 253 255 257 256 257 261 258 254 253 254 255 255 255 256 257 258 260 262 264 267 269 272 275 277 280 283 285 288 289 290 290 289 289 290 290
243 243 245 246 245 245 246 248 249 253 255 256 256 257 258 257 255 253 253 253 254 255 255 257 259 260 262 265 268 270 273 276 279 282 284 286 288 290 291 291 290 290 290 290
244 244 244 245 244 244 245 247 249 252 255 256 256 258 258 256 254 251 251 253 254 255 257 258 260 261 263 266 269 272 275 278 281 283 286 287 289 290 291 291 291 291 291 290
243 244 242 243 243 244 245 245 245 249 254 257 257 256 258 254 252 251 252 254 255 256 258 260 262 263 265 268 271 274 277 279 282 285 287 288 289 290 291 291 291 291 291 290
243 245 244 244 245 245 245 244 245 249 252 255 257 257 257 255 252 251 253 254 255 258 260 262 265 266 268 271 274 276 279 282 284 286 288 289 290 290 291 291 291 291 291 291
242 245 245 245 243 243 243 243 244 247 250 253 256 255 254 254 254 254 255 256 258 261 263 265 266 268 271 273 276 279 282 284 286 287 289 290 290 291 291 291 291 292 292 291
242 245 247 245 245 246 246 245 246 248 249 251 253 255 253 253 254 255 256 259 261 263 265 267 268 271 273 276 278 281 283 285 287 288 289 290 290 291 291 292 292 292 292 291
242 246 248 250 251 249 246 245 245 248 250 253 256 258 255 254 254 255 257 260 263 265 267 269 271 273 275 277 280 282 284 286 287 289 290 290 291 291 292 292 292 292 292 292
243 247 248 247 247 247 245 244 246 248 252 255 256 255 253 254 254 256 258 261 264 267 270 272 273 275 278 280 282 283 285 287 288 289 290 291 291 292 292 292 293 293 293 294
243 245 246 246 247 248 248 246 248 250 253 255 255 254 253 253 256 259 262 265 268 270 272 274 276 278 280 282 283 285 286 288 289 290 290 291 291 292 292 293 293 294 294 295
242 244 245 246 247 250 250 251 251 253 254 255 256 255 253 256 259 262 266 268 271 273 274 276 279 281 283 284 286 287 288 288 289 290 290 291 291 292 292 293 294 295 295 296
240 242 244 246 247 251 258 256 255 256 256 258 260 259 258 260 262 264 267 270 272 275 277 280 282 283 285 286 287 288 289 289 289 290 291 291 291 292 293 294 295 296 296 297
239 242 246 248 251 255 256 258 259 259 258 260 262 262 261 261 264 266 269 271 274 277 279 281 283 284 286 287 288 289 289 290 290 291 291 292 292 293 294 295 296 297 297 298
240 243 247 250 253 256 259 259 260 261 262 263 263 263 263 265 266 269 271 273 276 278 280 282 283 285 286 287 288 289 290 290 291 292 292 293 293 294 295 296 297 298 299 299
241 245 248 251 254 257 260 262 262 262 266 263 262 262 264 267 269 271 273 275 277 279 281 282 284 285 286 287 288 290 291 291 292 293 293 294 295 296 296 297 298 299 300 301
241 244 247 250 253 258 263 263 264 266 265 264 264 265 266 268 271 273 275 277 279 281 283 284 285 286 287 289 290 291 291 293 293 294 294 295 296 296 297 298 300 300 301 302
242 246 248 250 255 257 258 262 264 265 266 267 268 269 270 271 274 276 278 279 281 283 285 286 287 288 289 290 291 292 292 294 295 295 295 296 297 298 299 300 301 302 302 303
241 244 247 250 253 256 258 261 264 265 267 269 270 271 272 274 276 278 280 282 284 286 287 289 289 290 290 291 292 292 293 294 295 296 296 297 298 299 300 301 302 303 304 304
241 243 247 250 252 254 258 261 263 265 268 269 270 272 274 276 279 281 282 284 286 288 289 290 290 291 291 292 293 294 294 295 296 297 298 298 299 300 301 302 303 304 305 306
242 246 250 253 253 255 257 260 263 265 267 269 271 273 276 279 281 282 284 286 288 289 290 290 291 292 293 293 294 294 295 296 297 298 299 300 301 301 302 303 304 305 307 308
Height
5791 5795 5799 5802 5803 5805 5806 5808 5811 5812 5812 5813 5816 5818 5818 5817 5819 5820 5820 5820 5819 5818 5818 5817 5816 5816 5815 5814 5814 5813 5812 5811 5810 5809 5808 5806 5804 5803 5801 5799 5797 5794 5792 5789
5783 5788 5792 5792 5794 5796 5799 5801 5803 5805 5804 5805 5807 5810 5811 5811 5812 5813 5813 5813 5813 5812 5811 5810 5810 5809 5809 5808 5808 5807 5806 5805 5804 5803 5801 5800 5798 5796 5794 5792 5789 5787 5784 5782
5776 5782 5782 5784 5786 5788 5791 5793 5795 5796 5796 5796 5798 5802 5805 5804 5804 5805 5806 5806 5806 5805 5805 5804 5803 5803 5802 5802 5801 5801 5800 5799 5798 5796 5795 5793 5791 5789 5787 5784 5782 5779 5777 5774
5767 5772 5773 5775 5778 5780 5783 5785 5786 5787 5788 5789 5790 5792 5799 5797 5797 5798 5798 5799 5798 5798 5798 5797 5797 5796 5796 5796 5795 5794 5794 5792 5791 5790 5788 5786 5784 5782 5779 5777 5774 5771 5768 5765
5760 5764 5766 5768 5772 5773 5775 5776 5777 5778 5779 5781 5783 5782 5790 5790 5790 5791 5791 5791 5791 5791 5791 5790 5790 5790 5789 5789 5788 5788 5787 5786 5784 5783 5781 5779 5776 5774 5771 5769 5766 5763 5759 5756
5752 5755 5757 5761 5763 5765 5766 5768 5769 5769 5770 5773 5778 5775 5779 5783 5783 5783 5784 5784 5784 5784 5784 5783 5783 5783 5783 5782 5781 5780 5780 5778 5777 5775 5773 5771 5768 5766 5763 5760 5757 5754 5750 5747
5745 5747 5750 5753 5755 5757 5759 5761 5761 5762 5762 5766 5769 5768 5772 5776 5776 5776 5777 5777 5777 5777 5777 5776 5777 5776 5776 5775 5774 5773 5772 5770 5769 5767 5765 5762 5760 5757 5754 5751 5748 5744 5741 5737
5736 5739 5742 5745 5748 5749 5751 5752 5754 5755 5756 5758 5759 5760 5766 5768 5768 5768 5769 5769 5770 5770 5769 5769 5769 5769 5768 5768 5767 5765 5764 5762 5761 5758 5756 5754 5751 5748 5744 5741 5738 5734 5730 5727
5728 5732 5735 5737 5739 5741 5742 5744 5747 5747 5747 5748 5751 5754 5757 5760 5760 5761 5761 5762 5762 5762 5762 5762 5762 5762 5761 5760 5759 5757 5756 5754 5752 5750 5747 5744 5741 5738 5734 5731 5727 5724 5720 5716
5721 5723 5727 5729 5731 5733 5736 5738 5739 5739 5739 5740 5743 5746 5750 5752 5753 5754 5755 5755 5755 5755 5755 5755 5755 5754 5753 5752 5751 5749 5747 5745 5743 5740 5737 5734 5731 5727 5724 5720 5716 5712 5709 5705
5713 5716 5719 5721 5723 5726 5728 5730 5731 5732 5733 5734 5735 5742 5743 5744 5745 5747 5747 5748 5748 5748 5748 5747 5747 5746 5745 5744 5742 5741 5738 5736 5733 5730 5727 5724 5720 5717 5713 5709 5705 5701 5697 5693
5705 5708 5710 5713 5716 5717 5719 5722 5724 5725 5726 5727 5728 5735 5735 5736 5737 5738 5739 5740 5741 5741 5740 5740 5739 5738 5737 5735 5733 5731 5729 5726 5723 5720 5716 5713 5709 5705 5701 5697 5693 5689 5685 5680
5698 5700 5703 5705 5709 5710 5712 5715 5716 5718 5719 5719 5721 5728 5728 5729 5729 5730 5731 5732 5732 5732 5732 5731 5730 5729 5728 5726 5724 5722 5719 5716 5712 5709 5705 5701 5698 5694 5689 5685 5681 5676 5672 5668
5692 5694 5697 5700 5702 5703 5705 5708 5709 5710 5710 5713 5715 5719 5721 5720 5721 5722 5722 5723 5723 5723 5723 5722 5721 5720 5718 5716 5714 5711 5708 5705 5701 5698 5694 5690 5686 5682 5677 5673 5668 5664 5659 5654
5685 5687 5690 5692 5694 5696 5698 5700 5701 5702 5704 5706 5708 5710 5712 5712 5712 5713 5714 5714 5714 5714 5714 5713 5712 5710 5708 5706 5703 5700 5697 5694 5690 5686 5682 5678 5674 5669 5665 5660 5655 5651 5646 5641
5678 5681 5683 5685 5687 5688 5690 5692 5694 5696 5697 5698 5700 5703 5705 5703 5703 5704 5705 5705 5705 5705 5704 5703 5702 5700 5698 5695 5692 5689 5686 5682 5678 5674 5670 5666 5661 5657 5652 5647 5642 5637 5632 5627
5671 5674 5677 5679 5681 5680 5682 5686 5688 5689 5690 5692 5692 5696 5696 5695 5695 5696 5696 5696 5696 5695 5694 5693 5691 5689 5687 5684 5681 5678 5674 5670 5666 5662 5658 5653 5649 5644 5639 5634 5629 5624 5618 5613
5664 5667 5669 5671 5674 5672 5680 5680 5681 5682 5684 5685 5686 5687 5688 5688 5688 5688 5687 5687 5686 5685 5684 5682 5680 5678 5675 5672 5669 5666 5662 5658 5654 5650 5645 5641 5636 5631 5626 5621 5615 5610 5604 5598
5657 5660 5662 5664 5665 5666 5671 5673 5674 5674 5676 5678 5678 5679 5679 5678 5678 5679 5679 5677 5676 5675 5674 5672 5669 5667 5664 5661 5657 5654 5650 5646 5642 5637 5633 5628 5623 5618 5613 5608 5602 5596 5590 5584
5650 5652 5655 5656 5657 5659 5666 5667 5666 5667 5668 5671 5669 5669 5669 5669 5670 5671 5669 5668 5666 5665 5663 5661 5658 5655 5652 5649 5646 5642 5638 5634 5629 5625 5620 5615 5610 5605 5599 5594 5588 5581 5575 5568
5642 5644 5647 5649 5649 5652 5657 5659 5659 5660 5662 5662 5660 5660 5660 5661 5661 5661 5659 5658 5656 5654 5652 5649 5647 5644 5641 5637 5634 5630 5626 5621 5617 5612 5607 5602 5596 5591 5585 5579 5573 5566 5560 5553
5634 5636 5639 5640 5641 5647 5650 5649 5650 5651 5651 5651 5651 5652 5652 5651 5651 5650 5649 5647 5645 5643 5641 5638 5635 5632 5629 5625 5622 5618 5613 5609 5604 5599 5594 5589 5583 5577 5570 5564 5558 5550 5543 5536
5626 5630 5632 5634 5637 5639 5639 5640 5641 5641 5642 5642 5642 5642 5642 5642 5641 5640 5638 5636 5634 5632 5629 5627 5623 5620 5617 5613 5609 5605 5600 5596 5591 5586 5580 5575 5569 5562 5556 5549 5542 5534 5526 5518
5618 5621 5622 5624 5627 5629 5630 5631 5631 5632 5632 5632 5633 5633 5633 5632 5631 5630 5628 5626 5623 5621 5618 5615 5611 5608 5604 5601 5596 5592 5587 5583 5578 5573 5567 5561 5555 5548 5541 5533 5525 5517 5508 5499
5610 5612 5614 5616 5619 5620 5621 5622 5622 5623 5623 5623 5623 5623 5623 5622 5621 5619 5617 5615 5612 5609 5606 5603 5600 5596 5592 5588 5584 5579 5574 5569 5564 5559 5553 5546 5540 5533 5526 5518 5509 5499 5490 5477
5602 5605 5607 5609 5611 5612 5613 5613 5613 5614 5614 5614 5614 5613 5612 5611 5610 5608 5605 5603 5600 5597 5594 5591 5588 5584 5580 5575 5571 5565 5560 5556 5550 5545 5538 5531 5524 5517 5509 5501 5493 5482 5470 5459